Regional Weather Roundup
Issued by NWS

Home | Current Version | Previous Version | Graphics & Text | Print | Product List | Glossary On
Versions: 1 2 3 4 5 6 7 8 9 10 11 12 13 14 15 16 17 18 19 20 21 22 23 24 25 26 27 28 29 30 31 32 33 34 35 36 37 38 39 40 41 42 43 44 45 46 47 48 49 50
000
ASUS43 KLOT 250209
RWRIL

ILLINOIS REGIONAL WEATHER ROUNDUP
NATIONAL WEATHER SERVICE CHICAGO/ROMEOVILLE IL
900 PM CDT WED AUG 24 2016

NOTE: "FAIR" INDICATES FEW OR NO CLOUDS BELOW 12,000 FEET WITH NO
SIGNIFICANT WEATHER AND/OR OBSTRUCTIONS TO VISIBILITY.

* THESE STATIONS ARE NOT UNDER NWS QUALITY CONTROL. THEY ALSO MAY NOT
  REPORT WEATHER SUCH AS PRECIPITATION OR FOG.

ILZ001-002-007-009-015-016-024-250300-
NORTHWEST ILLINOIS

CITY           SKY/WX    TMP DP  RH WIND       PRES   REMARKS
MOLINE         CLOUDY    77  71  82 CALM      29.96R
STERLING*      CLOUDY    75  73  93 VRB3      29.95F
SAVANNA*       CLOUDY    78  71  78 SW3       29.96R HX  80
$$

ILZ003-004-008-010-011-017-018-250300-
NORTH CENTRAL ILLINOIS

CITY           SKY/WX    TMP DP  RH WIND       PRES   REMARKS
ROCKFORD       CLOUDY    78  71  79 S6        29.96S HX  80
FREEPORT*      CLOUDY    75  69  79 SW6       29.98R
ROCHELLE*      CLOUDY    73  72  96 SW5       29.97F
DE KALB*       PTCLDY    75  72  90 SW5       29.98S
$$

ILZ005-006-012>014-019>023-250300-
NORTHEAST ILLINOIS

CITY           SKY/WX    TMP DP  RH WIND       PRES   REMARKS
CHICAGO-OHARE  MOCLDY    78  72  81 SW3       29.96S HX  80
CHICAGO-MIDWAY MOCLDY    80  72  76 SW7       29.97R HX  84
AURORA         CLOUDY    76  72  87 S5        29.97S
LANSING*       PTCLDY    74  70  86 S6        29.98S
JOLIET*        CLEAR     76  73  92 CALM      29.98S
WAUKEGAN       PTCLDY    76  72  87 SW7       29.94R
DUPAGE AIRPORT CLEAR     77  71  82 SW7       29.97R
KANKAKEE*      PTCLDY    72  70  93 S3        30.01R
WHEELING       CLEAR     80  71  74 S5        29.97R HX  84
MORRIS*        CLOUDY    74  72  91 CALM      29.97S
ROMEOVILLE*    CLEAR     75  70  83 SW5       29.98S
NORTHERLY ISL    N/A     80  70  71 SW3         N/A  HX  83
$$

LMZ740>746-250300-
SOUTHERN LAKE MICHIGAN

STATION/POSITION SKY/WX   TEMP    WIND        PRES    VSBY  WAVE
                          AIR SEA DIR/SP/G                  HT/PER
                          (F)     (DEG/KT/KT) (MB)    (MI)  (FT/S)
SOUTHERN BUOY              76 75  180/ 10/ 10 1013.2R         2/ 4
WILMETTE HARBOR            72 70  210/  4/  6   N/A           1
HARRISON CRIB              83     260/  9/ 10   N/A
BURNHAM HARBOR             81     210/  3/  8   N/A
CALUMET HARBOR             81     210/  5/ 10 1014.2R
BURNS HARBOR               79     210/  7/ 10 1015.2R
MICHIGAN CITY              78     180/  8/  9   N/A
MICHIGAN CITY 6N           75 74  210/  6/  8   N/A           1/ 3
ST. JOSEPH                 76 75  240/  6/  8 1014.4R         1/ 3
$$

ILZ025>027-034>036-040-047-049-050-058-095>099-250300-
WEST-CENTRAL ILLINOIS

CITY           SKY/WX    TMP DP  RH WIND       PRES   REMARKS
QUINCY         CLEAR     80  75  84 CALM      29.99R HX  85
GALESBURG*     CLOUDY    76  73  91 CALM      29.97S
MACOMB*        PTCLDY    74  72  94 S5        29.99F
JACKSONVILLE*  CLEAR     80  74  83 S6        29.98S HX  84
PITTSFIELD*    CLEAR     78  75  90 CALM      30.00R HX  80
$$

ILZ028>032-037-038-041>044-048-051>054-059>061-250300-
CENTRAL ILLINOIS

CITY           SKY/WX    TMP DP  RH WIND       PRES   REMARKS
PONTIAC        CLEAR     73  73  99 CALM      30.00R
BLOOMINGTON    CLOUDY    76  72  87 S5        30.02R
DECATUR        CLOUDY    80  74  81 S3        30.01S HX  85
PEORIA         CLOUDY    79  74  84 S5        29.98S HX  82
LACON*         CLOUDY    76  71  86 CALM      29.96S
LINCOLN*       PTCLDY    78  76  93 CALM      29.99S HX  82
SPRINGFIELD    CLEAR     79  75  87 S6        29.99S HX  83
TAYLORVILLE    CLEAR     76  74  94 CALM      30.01S
$$

ILZ033-039-045-046-055>057-062-063-250300-
EAST-CENTRAL ILLINOIS

CITY           SKY/WX    TMP DP  RH WIND       PRES   REMARKS
CHAMPAIGN      CLEAR     76  73  91 S3        30.02S
RANTOUL*       CLEAR     78  74  88 CALM      30.02R HX  81
MATTOON        CLEAR     80  76  87 S3        30.03R HX  86
PARIS*         CLOUDY    75  74  99 CALM      30.04R
$$

ILZ079-100>102-250300-
SOUTHWEST ILLINOIS

CITY           SKY/WX    TMP DP  RH WIND       PRES   REMARKS
ALTON          PTCLDY    79  73  83 SE5       30.01R HX  82
BELLEVILLE     PTCLDY    80  75  83 S7        30.00R HX  85
CAHOKIA*       CLOUDY    84  77  79 S6        30.00R HX  94
SPARTA*        CLEAR     82  76  81 S6        30.05R HX  90
$$

ILZ064>066-069>071-074>076-080>082-084>086-088>090-092>094-250300-
SOUTH-CENTRAL ILLINOIS

CITY           SKY/WX    TMP DP  RH WIND       PRES   REMARKS
CARBONDALE     CLEAR     78  74  87 S8        30.05R HX  81
CAIRO*         CLEAR     81  77  88 S5        30.07R HX  88
EFFINGHAM*     CLOUDY    80  80 100 SE3       30.04S HX  86
MARION         CLEAR     82  77  83 SW6       30.07R HX  91
MT. VERNON     PTCLDY    79  72  78 S5        30.05R HX  82
CENTRALIA*     CLOUDY    82  77  86 S6        30.03R HX  90
SALEM*         CLOUDY    83  76  78 S6        30.03S HX  91
METROPOLIS*    CLEAR     82  75  81 S3        30.09R HX  88
$$

ILZ067-068-072-073-078-083-087-091-250300-
SOUTHEAST ILLINOIS

CITY           SKY/WX    TMP DP  RH WIND       PRES   REMARKS
LAWRENCEVILLE  CLEAR     79  76  90 S8        30.05R HX  83
FLORA*         CLEAR     82  77  86 S6        30.04R HX  89
FAIRFIELD*     CLEAR     80  76  89 S6        30.04R HX  85
HARRISBURG*    CLEAR     80  76  86 S5        30.07R HX  86
ROBINSON*      PTCLDY    77  75  93 S6        30.05R
CARMI*         CLEAR     79  76  90 S6        30.06R HX  82
$$

ABBREVIATIONS USED IN REMARKS
   TC - TEMPERATURE IN CELSIUS
  WCI - WIND CHILL INDEX
   HX - HEAT INDEX
  VSB - VISIBILITY
$$





USA.gov is the U.S. government's official web portal to all federal, state and local government web resources and services.